Location: Newark
(50.5639°N, 7.9725°E)
Time: 13:04:34
(UTC+00:00)

Envisat - Visible Passes

Search period start: 24 September 2020 00:00
Search period end: 04 October 2020 00:00
Orbit: 764 x 766 km, 98.1° (Epoch: 23 September)

Date Brightness Start Highest point End Pass type
(mag) Time Alt. Az. Time Alt. Az. Time Alt. Az.
24 Sep 6.3 04:08:19 10° NE 04:10:47 13° E 04:13:15 10° ESE visible
25 Sep 6.3 18:10:02 10° WSW 18:12:53 15° W 18:15:43 10° NW visible
26 Sep 5.9 04:32:38 10° NE 04:36:35 22° E 04:40:28 10° SE visible
27 Sep 6.7 03:58:06 10° ENE 03:59:15 11° E 04:00:23 10° E visible
28 Sep 6.1 17:57:54 10° SW 18:01:22 18° W 18:04:51 10° NW visible
29 Sep 6.1 04:21:38 10° NE 04:25:05 18° E 04:28:30 10° SE visible
30 Sep 6.7 18:25:53 10° W 18:27:12 11° W 18:28:30 10° WNW visible
01 Oct 5.4 04:46:24 10° NNE 04:50:48 29° E 04:55:11 10° SSE visible
01 Oct 5.9 17:45:56 10° SW 17:49:52 22° W 17:53:49 10° NW visible
02 Oct 6.3 04:10:46 10° NE 04:13:34 15° E 04:16:20 10° ESE visible
03 Oct 6.4 18:13:06 10° WSW 18:15:39 14° W 18:18:12 10° NW visible
